Time,TemperatureF,DewpointF,PressureIn,WindDirection,WindDirectionDegrees,WindSpeedMPH,WindSpeedGustMPH,Humidity,HourlyPrecipIn,Conditions,Clouds,dailyrainin,SolarRadiationWatts/m^2,SoftwareType,DateUTC
2013-11-23 00:00:00,27.6,6.9,30.67,NNE,22,0.0,0.0,41,0.00,,,0.00,0,Wunderground v.1.15,2013-11-23 07:00:00,
2013-11-23 00:05:00,27.5,6.3,30.67,NNE,22,0.0,0.0,40,0.00,,,0.00,0,Wunderground v.1.15,2013-11-23 07:05:00,
2013-11-23 00:15:00,27.5,4.0,30.66,NNE,22,0.0,1.0,36,0.00,,,0.00,0,Wunderground v.1.15,2013-11-23 07:15:00,
2013-11-23 00:20:00,27.5,5.2,30.66,NNE,22,0.0,0.0,38,0.00,,,0.00,0,Wunderground v.1.15,2013-11-23 07:20:00,
2013-11-23 00:25:00,27.5,5.2,30.66,NNE,22,0.0,2.0,38,0.00,,,0.00,0,Wunderground v.1.15,2013-11-23 07:25:00,
2013-11-23 00:35:00,27.5,3.4,30.66,NNE,22,0.0,0.0,35,0.00,,,0.00,0,Wunderground v.1.15,2013-11-23 07:35:00,
2013-11-23 00:40:00,27.5,4.0,30.66,NNE,22,0.0,0.0,36,0.00,,,0.00,0,Wunderground v.1.15,2013-11-23 07:40:00,
2013-11-23 00:45:00,27.5,4.0,30.65,NNE,22,0.0,0.0,36,0.00,,,0.00,0,Wunderground v.1.15,2013-11-23 07:45:00,
2013-11-23 00:50:00,27.5,5.7,30.65,NNE,22,0.0,0.0,39,0.00,,,0.00,0,Wunderground v.1.15,2013-11-23 07:50:00,
2013-11-23 00:55:00,27.3,5.6,30.65,NNE,22,0.0,0.0,39,0.00,,,0.00,0,Wunderground v.1.15,2013-11-23 07:55:00,
2013-11-23 01:00:00,27.3,5.0,30.66,NNE,22,0.0,0.0,38,0.00,,,0.00,0,Wunderground v.1.15,2013-11-23 08:00:00,
2013-11-23 01:10:00,27.3,1.9,30.66,NNE,22,0.0,0.0,33,0.00,,,0.00,0,Wunderground v.1.15,2013-11-23 08:10:00,
2013-11-23 01:15:00,27.5,3.4,30.65,NNE,22,0.0,0.0,35,0.00,,,0.00,0,Wunderground v.1.15,2013-11-23 08:15:00,
2013-11-23 01:20:00,27.5,2.1,30.65,NNE,22,0.0,0.0,33,0.00,,,0.00,0,Wunderground v.1.15,2013-11-23 08:20:00,
2013-11-23 01:25:00,27.5,3.4,30.65,NNE,22,0.0,0.0,35,0.00,,,0.00,0,Wunderground v.1.15,2013-11-23 08:25:00,
2013-11-23 01:30:00,27.5,0.1,30.65,NNE,22,0.0,0.0,30,0.00,,,0.00,0,Wunderground v.1.15,2013-11-23 08:30:00,
2013-11-23 01:40:00,27.5,1.4,30.65,NNE,22,0.0,0.0,32,0.00,,,0.00,0,Wunderground v.1.15,2013-11-23 08:40:00,
2013-11-23 01:45:00,27.5,1.4,30.65,NNE,22,0.0,0.0,32,0.00,,,0.00,0,Wunderground v.1.15,2013-11-23 08:45:00,
2013-11-23 01:50:00,27.6,1.5,30.65,NNE,22,0.0,0.0,32,0.00,,,0.00,0,Wunderground v.1.15,2013-11-23 08:50:00,
2013-11-23 01:55:00,27.5,0.8,30.65,NNE,22,0.0,0.0,31,0.00,,,0.00,0,Wunderground v.1.15,2013-11-23 08:55:00,
2013-11-23 02:00:00,27.5,2.1,30.65,NNE,22,0.0,1.0,33,0.00,,,0.00,0,Wunderground v.1.15,2013-11-23 09:00:00,
2013-11-23 02:05:00,27.5,0.8,30.65,NNE,22,0.0,1.0,31,0.00,,,0.00,0,Wunderground v.1.15,2013-11-23 09:05:00,
2013-11-23 02:15:00,27.5,2.1,30.65,NNE,22,0.0,0.0,33,0.00,,,0.00,0,Wunderground v.1.15,2013-11-23 09:15:00,
2013-11-23 02:25:00,27.5,0.8,30.65,NNE,22,0.0,0.0,31,0.00,,,0.00,0,Wunderground v.1.15,2013-11-23 09:25:00,
2013-11-23 02:30:00,27.6,1.5,30.65,NNE,22,0.0,0.0,32,0.00,,,0.00,0,Wunderground v.1.15,2013-11-23 09:30:00,
2013-11-23 02:35:00,27.6,1.5,30.65,NNE,22,0.0,0.0,32,0.00,,,0.00,0,Wunderground v.1.15,2013-11-23 09:35:00,
2013-11-23 02:40:00,27.8,2.4,30.65,NNE,22,0.0,0.0,33,0.00,,,0.00,0,Wunderground v.1.15,2013-11-23 09:40:00,
2013-11-23 02:45:00,27.9,2.5,30.65,NNE,22,0.0,0.0,33,0.00,,,0.00,0,Wunderground v.1.15,2013-11-23 09:45:00,
2013-11-23 02:50:00,28.1,1.3,30.65,NNE,22,0.0,0.0,31,0.00,,,0.00,0,Wunderground v.1.15,2013-11-23 09:50:00,
2013-11-23 02:55:00,28.1,2.0,30.65,NNE,22,0.0,1.0,32,0.00,,,0.00,0,Wunderground v.1.15,2013-11-23 09:55:00,
2013-11-23 03:00:00,27.6,7.5,30.64,NNE,22,1.0,2.0,42,0.00,,,0.00,0,Wunderground v.1.15,2013-11-23 10:00:00,
2013-11-23 03:10:00,27.0,8.9,30.64,NNE,22,1.0,2.0,46,0.00,,,0.00,0,Wunderground v.1.15,2013-11-23 10:10:00,
2013-11-23 03:15:00,26.6,9.1,30.64,NNE,22,1.0,2.0,47,0.00,,,0.00,0,Wunderground v.1.15,2013-11-23 10:15:00,
2013-11-23 03:20:00,26.3,10.2,30.64,NNE,22,2.0,2.0,50,0.00,,,0.00,0,Wunderground v.1.15,2013-11-23 10:20:00,
2013-11-23 03:25:00,26.1,10.4,30.64,NNE,21,2.0,2.0,51,0.00,,,0.00,0,Wunderground v.1.15,2013-11-23 10:25:00,
2013-11-23 03:30:00,26.0,10.8,30.64,NNE,22,1.0,1.0,52,0.00,,,0.00,0,Wunderground v.1.15,2013-11-23 10:30:00,
2013-11-23 03:35:00,26.0,10.3,30.64,NNE,21,1.0,1.0,51,0.00,,,0.00,0,Wunderground v.1.15,2013-11-23 10:35:00,
2013-11-23 03:40:00,26.0,11.2,30.64,NNE,21,0.0,0.0,53,0.00,,,0.00,0,Wunderground v.1.15,2013-11-23 10:40:00,
2013-11-23 03:45:00,26.1,10.9,30.64,NNE,21,0.0,0.0,52,0.00,,,0.00,0,Wunderground v.1.15,2013-11-23 10:45:00,
2013-11-23 03:55:00,26.1,10.4,30.64,NNE,21,0.0,0.0,51,0.00,,,0.00,0,Wunderground v.1.15,2013-11-23 10:55:00,
2013-11-23 04:00:00,26.1,10.4,30.64,NNE,21,0.0,0.0,51,0.00,,,0.00,0,Wunderground v.1.15,2013-11-23 11:00:00,
2013-11-23 04:06:00,26.1,10.4,30.64,NNE,21,0.0,0.0,51,0.00,,,0.00,0,Wunderground v.1.15,2013-11-23 11:06:00,
2013-11-23 04:15:00,26.1,10.9,30.64,NNE,21,0.0,0.0,52,0.00,,,0.00,0,Wunderground v.1.15,2013-11-23 11:15:00,
2013-11-23 04:20:00,26.3,10.6,30.64,NNE,21,0.0,0.0,51,0.00,,,0.00,0,Wunderground v.1.15,2013-11-23 11:20:00,
2013-11-23 04:25:00,26.4,10.3,30.64,NNE,21,0.0,0.0,50,0.00,,,0.00,0,Wunderground v.1.15,2013-11-23 11:25:00,
2013-11-23 04:30:00,26.6,10.0,30.64,NNE,21,0.0,0.0,49,0.00,,,0.00,0,Wunderground v.1.15,2013-11-23 11:30:00,
2013-11-23 04:40:00,26.7,11.0,30.64,NNE,21,0.0,0.0,51,0.00,,,0.00,0,Wunderground v.1.15,2013-11-23 11:40:00,
2013-11-23 04:45:00,26.7,11.0,30.64,NNE,21,0.0,0.0,51,0.00,,,0.00,0,Wunderground v.1.15,2013-11-23 11:45:00,
2013-11-23 04:50:00,26.7,11.0,30.64,NNE,21,0.0,0.0,51,0.00,,,0.00,0,Wunderground v.1.15,2013-11-23 11:50:00,
2013-11-23 04:55:00,26.6,10.9,30.64,NNE,21,0.0,0.0,51,0.00,,,0.00,0,Wunderground v.1.15,2013-11-23 11:55:00,
2013-11-23 05:00:00,26.4,11.1,30.64,NNE,21,0.0,0.0,52,0.00,,,0.00,0,Wunderground v.1.15,2013-11-23 12:00:00,
2013-11-23 05:10:00,26.1,10.9,30.64,NNE,21,0.0,0.0,52,0.00,,,0.00,0,Wunderground v.1.15,2013-11-23 12:10:00,
2013-11-23 05:15:00,26.1,10.0,30.63,NNE,21,0.0,0.0,50,0.00,,,0.00,0,Wunderground v.1.15,2013-11-23 12:15:00,
2013-11-23 05:20:00,26.1,10.0,30.63,NNE,21,0.0,0.0,50,0.00,,,0.00,0,Wunderground v.1.15,2013-11-23 12:20:00,
2013-11-23 05:25:00,26.1,10.4,30.63,NNE,21,0.0,0.0,51,0.00,,,0.00,0,Wunderground v.1.15,2013-11-23 12:25:00,
2013-11-23 05:30:00,26.3,10.6,30.62,NNE,21,0.0,0.0,51,0.00,,,0.00,0,Wunderground v.1.15,2013-11-23 12:30:00,
2013-11-23 05:35:00,26.4,10.7,30.62,NNE,21,0.0,0.0,51,0.00,,,0.00,0,Wunderground v.1.15,2013-11-23 12:35:00,
2013-11-23 05:40:00,26.4,10.7,30.62,NNE,21,0.0,0.0,51,0.00,,,0.00,0,Wunderground v.1.15,2013-11-23 12:40:00,
2013-11-23 05:50:00,26.9,11.2,30.62,NNE,21,0.0,0.0,51,0.00,,,0.00,0,Wunderground v.1.15,2013-11-23 12:50:00,
2013-11-23 05:55:00,26.9,11.2,30.62,NNE,21,0.0,0.0,51,0.00,,,0.00,0,Wunderground v.1.15,2013-11-23 12:55:00,
2013-11-23 06:00:00,27.0,10.8,30.63,NNE,21,0.0,0.0,50,0.00,,,0.00,0,Wunderground v.1.15,2013-11-23 13:00:00,
2013-11-23 06:10:00,27.2,10.1,30.63,NNE,21,0.0,0.0,48,0.00,,,0.00,0,Wunderground v.1.15,2013-11-23 13:10:00,
2013-11-23 06:15:00,27.0,9.9,30.62,NNE,21,0.0,0.0,48,0.00,,,0.00,0,Wunderground v.1.15,2013-11-23 13:15:00,
2013-11-23 06:20:00,27.0,9.4,30.62,NNE,21,0.0,0.0,47,0.00,,,0.00,0,Wunderground v.1.15,2013-11-23 13:20:00,
2013-11-23 06:25:00,26.9,9.8,30.62,NNE,21,0.0,0.0,48,0.00,,,0.00,0,Wunderground v.1.15,2013-11-23 13:25:00,
2013-11-23 06:30:00,26.9,9.3,30.62,NNE,21,0.0,0.0,47,0.00,,,0.00,0,Wunderground v.1.15,2013-11-23 13:30:00,
2013-11-23 06:35:00,26.9,9.3,30.62,NNE,21,0.0,0.0,47,0.00,,,0.00,0,Wunderground v.1.15,2013-11-23 13:35:00,
2013-11-23 06:40:00,26.9,8.4,30.62,NNE,22,0.0,0.0,45,0.00,,,0.00,0,Wunderground v.1.15,2013-11-23 13:40:00,
2013-11-23 06:45:00,27.0,8.5,30.62,NNE,21,0.0,0.0,45,0.00,,,0.00,0,Wunderground v.1.15,2013-11-23 13:45:00,
2013-11-23 06:50:00,27.0,8.5,30.62,NNE,21,0.0,0.0,45,0.00,,,0.00,0,Wunderground v.1.15,2013-11-23 13:50:00,
2013-11-23 07:00:00,27.2,10.5,30.63,NNE,21,0.0,0.0,49,0.00,,,0.00,0,Wunderground v.1.15,2013-11-23 14:00:00,
2013-11-23 07:10:00,27.0,10.4,30.63,NNE,22,0.0,0.0,49,0.00,,,0.00,5,Wunderground v.1.15,2013-11-23 14:10:00,
2013-11-23 07:15:00,26.9,10.3,30.63,NNE,21,0.0,0.0,49,0.00,,,0.00,5,Wunderground v.1.15,2013-11-23 14:15:00,
2013-11-23 07:20:00,26.9,10.3,30.63,NNE,21,0.0,2.0,49,0.00,,,0.00,5,Wunderground v.1.15,2013-11-23 14:20:00,
2013-11-23 07:25:00,26.9,9.8,30.63,NNE,21,0.0,2.0,48,0.00,,,0.00,7,Wunderground v.1.15,2013-11-23 14:25:00,
2013-11-23 07:31:00,26.9,10.3,30.62,NNE,21,0.0,0.0,49,0.00,,,0.00,9,Wunderground v.1.15,2013-11-23 14:31:00,
2013-11-23 07:40:00,26.9,10.7,30.62,NNE,21,0.0,0.0,50,0.00,,,0.00,12,Wunderground v.1.15,2013-11-23 14:40:00,
2013-11-23 07:45:00,27.0,10.4,30.63,NNE,21,0.0,0.0,49,0.00,,,0.00,16,Wunderground v.1.15,2013-11-23 14:45:00,
2013-11-23 07:50:00,27.0,9.9,30.63,NNE,21,0.0,1.0,48,0.00,,,0.00,21,Wunderground v.1.15,2013-11-23 14:50:00,
2013-11-23 08:00:00,27.2,10.1,30.63,NNE,21,1.0,1.0,48,0.00,,,0.00,35,Wunderground v.1.15,2013-11-23 15:00:00,
2013-11-23 08:06:00,27.3,9.2,30.63,NNE,21,1.0,1.0,46,0.00,,,0.00,40,Wunderground v.1.15,2013-11-23 15:06:00,
2013-11-23 08:15:00,27.6,10.0,30.63,NNE,22,1.0,2.0,47,0.00,,,0.00,58,Wunderground v.1.15,2013-11-23 15:15:00,
2013-11-23 08:20:00,27.6,10.4,30.63,NNE,21,1.0,1.0,48,0.00,,,0.00,79,Wunderground v.1.15,2013-11-23 15:20:00,
2013-11-23 08:30:00,27.8,10.2,30.63,NNE,21,1.0,1.0,47,0.00,,,0.00,88,Wunderground v.1.15,2013-11-23 15:30:00,
2013-11-23 08:35:00,27.9,10.7,30.63,NNE,21,1.0,1.0,48,0.00,,,0.00,95,Wunderground v.1.15,2013-11-23 15:35:00,
2013-11-23 08:40:00,28.1,10.4,30.63,NNE,21,0.0,0.0,47,0.00,,,0.00,98,Wunderground v.1.15,2013-11-23 15:40:00,
2013-11-23 08:45:00,28.2,10.5,30.63,NNE,21,1.0,1.0,47,0.00,,,0.00,102,Wunderground v.1.15,2013-11-23 15:45:00,
2013-11-23 08:50:00,28.2,10.0,30.63,NNE,21,1.0,1.0,46,0.00,,,0.00,113,Wunderground v.1.15,2013-11-23 15:50:00,
2013-11-23 08:55:00,28.4,10.2,30.63,NNE,21,1.0,1.0,46,0.00,,,0.00,121,Wunderground v.1.15,2013-11-23 15:55:00,
2013-11-23 09:00:00,28.7,9.5,30.62,NNE,21,0.0,3.0,44,0.00,,,0.00,125,Wunderground v.1.15,2013-11-23 16:00:00,
2013-11-23 09:10:00,29.1,9.9,30.62,NNE,21,1.0,1.0,44,0.00,,,0.00,244,Wunderground v.1.15,2013-11-23 16:10:00,
2013-11-23 09:15:00,29.8,10.0,30.63,NNE,21,0.0,1.0,43,0.00,,,0.00,260,Wunderground v.1.15,2013-11-23 16:15:00,
2013-11-23 09:20:00,30.1,9.2,30.63,NNE,21,0.0,0.0,41,0.00,,,0.00,327,Wunderground v.1.15,2013-11-23 16:20:00,
2013-11-23 09:25:00,31.0,10.6,30.63,NNE,21,1.0,1.0,42,0.00,,,0.00,341,Wunderground v.1.15,2013-11-23 16:25:00,
2013-11-23 09:30:00,31.5,9.9,30.62,NNE,21,1.0,4.0,40,0.00,,,0.00,369,Wunderground v.1.15,2013-11-23 16:30:00,
2013-11-23 09:35:00,31.6,9.4,30.62,NNE,21,1.0,4.0,39,0.00,,,0.00,320,Wunderground v.1.15,2013-11-23 16:35:00,
2013-11-23 09:40:00,31.5,9.9,30.62,NNE,21,1.0,1.0,40,0.00,,,0.00,185,Wunderground v.1.15,2013-11-23 16:40:00,
2013-11-23 09:45:00,31.3,11.4,30.62,NNE,21,0.0,1.0,43,0.00,,,0.00,371,Wunderground v.1.15,2013-11-23 16:45:00,
2013-11-23 09:50:00,31.5,11.5,30.62,NNE,21,0.0,0.0,43,0.00,,,0.00,515,Wunderground v.1.15,2013-11-23 16:50:00,
2013-11-23 10:00:00,31.9,11.9,30.62,NNE,23,1.0,1.0,43,0.00,,,0.00,392,Wunderground v.1.15,2013-11-23 17:00:00,
2013-11-23 10:06:00,31.8,12.8,30.62,NNE,18,1.0,3.0,45,0.00,,,0.00,232,Wunderground v.1.15,2013-11-23 17:06:00,
2013-11-23 10:15:00,30.7,12.8,30.61,NNE,22,1.0,1.0,47,0.00,,,0.00,151,Wunderground v.1.15,2013-11-23 17:15:00,
2013-11-23 10:20:00,30.4,14.9,30.61,NNE,22,2.0,2.0,52,0.00,,,0.00,223,Wunderground v.1.15,2013-11-23 17:20:00,
2013-11-23 10:30:00,30.4,15.3,30.60,NNE,26,1.0,1.0,53,0.00,,,0.00,243,Wunderground v.1.15,2013-11-23 17:30:00,
2013-11-23 10:35:00,30.7,16.0,30.60,NNE,26,1.0,1.0,54,0.00,,,0.00,253,Wunderground v.1.15,2013-11-23 17:35:00,
2013-11-23 10:40:00,31.2,16.0,30.60,NNE,26,0.0,0.0,53,0.00,,,0.00,221,Wunderground v.1.15,2013-11-23 17:40:00,
2013-11-23 10:45:00,31.8,16.6,30.60,NNE,26,0.0,0.0,53,0.00,,,0.00,229,Wunderground v.1.15,2013-11-23 17:45:00,
2013-11-23 10:55:00,32.2,16.5,30.60,NNE,26,0.0,0.0,52,0.00,,,0.00,292,Wunderground v.1.15,2013-11-23 17:55:00,
2013-11-23 11:00:00,32.4,16.3,30.59,NNE,26,0.0,0.0,51,0.00,,,0.00,239,Wunderground v.1.15,2013-11-23 18:00:00,
2013-11-23 11:06:00,32.8,16.2,30.59,NNE,26,0.0,1.0,50,0.00,,,0.00,246,Wunderground v.1.15,2013-11-23 18:06:00,
2013-11-23 11:15:00,33.1,16.0,30.58,NNE,26,1.0,1.0,49,0.00,,,0.00,253,Wunderground v.1.15,2013-11-23 18:15:00,
2013-11-23 11:20:00,33.4,15.3,30.58,NNE,26,0.0,0.0,47,0.00,,,0.00,236,Wunderground v.1.15,2013-11-23 18:20:00,
2013-11-23 11:25:00,33.5,15.4,30.58,NNE,26,0.0,0.0,47,0.00,,,0.00,239,Wunderground v.1.15,2013-11-23 18:25:00,
2013-11-23 11:30:00,33.8,14.2,30.57,NNE,26,0.0,2.0,44,0.00,,,0.00,244,Wunderground v.1.15,2013-11-23 18:30:00,
2013-11-23 11:35:00,34.0,12.7,30.57,NNE,27,0.0,2.0,41,0.00,,,0.00,253,Wunderground v.1.15,2013-11-23 18:35:00,
2013-11-23 11:40:00,33.4,12.2,30.57,NNE,27,1.0,2.0,41,0.00,,,0.00,244,Wunderground v.1.15,2013-11-23 18:40:00,
2013-11-23 11:50:00,33.4,14.3,30.56,NNE,27,0.0,0.0,45,0.00,,,0.00,202,Wunderground v.1.15,2013-11-23 18:50:00,
2013-11-23 11:55:00,33.7,13.0,30.56,NNE,27,0.0,0.0,42,0.00,,,0.00,193,Wunderground v.1.15,2013-11-23 18:55:00,
2013-11-23 12:00:00,33.7,13.5,30.56,NNE,27,0.0,0.0,43,0.00,,,0.00,218,Wunderground v.1.15,2013-11-23 19:00:00,
2013-11-23 12:05:00,34.0,13.3,30.56,NNE,27,0.0,0.0,42,0.00,,,0.00,251,Wunderground v.1.15,2013-11-23 19:05:00,
2013-11-23 12:20:00,33.8,11.4,30.55,NNE,26,2.0,2.0,39,0.00,,,0.00,186,Wunderground v.1.15,2013-11-23 19:20:00,
2013-11-23 12:25:00,33.7,11.9,30.55,NNE,26,1.0,2.0,40,0.00,,,0.00,220,Wunderground v.1.15,2013-11-23 19:25:00,
2013-11-23 12:30:00,33.8,12.6,30.54,NNE,26,1.0,3.0,41,0.00,,,0.00,283,Wunderground v.1.15,2013-11-23 19:30:00,
2013-11-23 12:40:00,34.4,13.6,30.54,NNE,26,1.0,1.0,42,0.00,,,0.00,294,Wunderground v.1.15,2013-11-23 19:40:00,
2013-11-23 12:50:00,35.2,13.8,30.53,NNE,26,1.0,3.0,41,0.00,,,0.00,330,Wunderground v.1.15,2013-11-23 19:50:00,
2013-11-23 12:55:00,35.6,15.8,30.53,NNE,26,0.0,3.0,44,0.00,,,0.00,301,Wunderground v.1.15,2013-11-23 19:55:00,
2013-11-23 13:00:00,35.6,14.2,30.52,NNE,26,1.0,1.0,41,0.00,,,0.00,294,Wunderground v.1.15,2013-11-23 20:00:00,
2013-11-23 13:05:00,35.6,14.7,30.52,NNE,26,1.0,1.0,42,0.00,,,0.00,411,Wunderground v.1.15,2013-11-23 20:05:00,
2013-11-23 13:15:00,35.2,13.8,30.51,NNE,26,1.0,3.0,41,0.00,,,0.00,301,Wunderground v.1.15,2013-11-23 20:15:00,
2013-11-23 13:20:00,35.3,15.0,30.51,NNE,26,1.0,1.0,43,0.00,,,0.00,258,Wunderground v.1.15,2013-11-23 20:20:00,
2013-11-23 13:25:00,35.5,13.5,30.51,NNE,26,1.0,1.0,40,0.00,,,0.00,285,Wunderground v.1.15,2013-11-23 20:25:00,
2013-11-23 13:30:00,35.8,15.5,30.51,NNE,26,0.0,3.0,43,0.00,,,0.00,306,Wunderground v.1.15,2013-11-23 20:30:00,
2013-11-23 13:35:00,35.8,14.4,30.51,NNE,26,0.0,3.0,41,0.00,,,0.00,279,Wunderground v.1.15,2013-11-23 20:35:00,
2013-11-23 13:40:00,35.8,13.2,30.51,NNE,26,0.0,0.0,39,0.00,,,0.00,371,Wunderground v.1.15,2013-11-23 20:40:00,
2013-11-23 13:45:00,35.3,14.5,30.50,NNE,26,1.0,4.0,42,0.00,,,0.00,216,Wunderground v.1.15,2013-11-23 20:45:00,
2013-11-23 13:55:00,35.0,13.1,30.50,NNE,26,0.0,1.0,40,0.00,,,0.00,146,Wunderground v.1.15,2013-11-23 20:55:00,
2013-11-23 14:00:00,35.0,14.2,30.49,NNE,26,0.0,0.0,42,0.00,,,0.00,134,Wunderground v.1.15,2013-11-23 21:00:00,
2013-11-23 14:06:00,35.5,15.2,30.49,NNE,26,0.0,0.0,43,0.00,,,0.00,137,Wunderground v.1.15,2013-11-23 21:06:00,
2013-11-23 14:15:00,36.3,14.3,30.49,NNE,26,0.0,0.0,40,0.00,,,0.00,146,Wunderground v.1.15,2013-11-23 21:15:00,
2013-11-23 14:20:00,36.6,13.9,30.49,NNE,26,0.0,0.0,39,0.00,,,0.00,144,Wunderground v.1.15,2013-11-23 21:20:00,
2013-11-23 14:25:00,36.5,13.3,30.49,NNE,26,0.0,0.0,38,0.00,,,0.00,139,Wunderground v.1.15,2013-11-23 21:25:00,
2013-11-23 14:30:00,36.0,15.1,30.47,NNE,26,0.0,0.0,42,0.00,,,0.00,142,Wunderground v.1.15,2013-11-23 21:30:00,
2013-11-23 14:35:00,35.9,13.9,30.47,NNE,26,0.0,0.0,40,0.00,,,0.00,144,Wunderground v.1.15,2013-11-23 21:35:00,
2013-11-23 14:40:00,36.0,13.4,30.47,NNE,26,0.0,0.0,39,0.00,,,0.00,144,Wunderground v.1.15,2013-11-23 21:40:00,
2013-11-23 14:45:00,35.9,13.3,30.47,NNE,26,0.0,0.0,39,0.00,,,0.00,132,Wunderground v.1.15,2013-11-23 21:45:00,
2013-11-23 14:50:00,36.2,14.7,30.47,NNE,26,0.0,0.0,41,0.00,,,0.00,327,Wunderground v.1.15,2013-11-23 21:50:00,
2013-11-23 14:55:00,36.9,14.8,30.47,NNE,26,0.0,0.0,40,0.00,,,0.00,345,Wunderground v.1.15,2013-11-23 21:55:00,
2013-11-23 15:05:00,37.9,15.1,30.47,NNE,26,0.0,0.0,39,0.00,,,0.00,155,Wunderground v.1.15,2013-11-23 22:05:00,
2013-11-23 15:15:00,37.5,14.2,30.46,NNE,26,0.0,0.0,38,0.00,,,0.00,162,Wunderground v.1.15,2013-11-23 22:15:00,
2013-11-23 15:20:00,37.5,14.2,30.46,NNE,26,0.0,0.0,38,0.00,,,0.00,130,Wunderground v.1.15,2013-11-23 22:20:00,
2013-11-23 15:25:00,37.8,14.4,30.46,NNE,26,0.0,0.0,38,0.00,,,0.00,118,Wunderground v.1.15,2013-11-23 22:25:00,
2013-11-23 15:30:00,37.5,14.8,30.46,NNE,26,0.0,0.0,39,0.00,,,0.00,97,Wunderground v.1.15,2013-11-23 22:30:00,
2013-11-23 15:35:00,37.3,14.6,30.46,NNE,26,0.0,0.0,39,0.00,,,0.00,65,Wunderground v.1.15,2013-11-23 22:35:00,
2013-11-23 15:40:00,36.8,14.1,30.46,NNE,26,0.0,0.0,39,0.00,,,0.00,51,Wunderground v.1.15,2013-11-23 22:40:00,
2013-11-23 15:45:00,36.5,13.9,30.45,NNE,26,0.0,0.0,39,0.00,,,0.00,44,Wunderground v.1.15,2013-11-23 22:45:00,
2013-11-23 15:55:00,35.9,16.1,30.45,NNE,26,0.0,0.0,44,0.00,,,0.00,33,Wunderground v.1.15,2013-11-23 22:55:00,
2013-11-23 16:06:00,35.3,16.6,30.45,WNW,282,0.0,0.0,46,0.00,,,0.00,39,Wunderground v.1.15,2013-11-23 23:06:00,
2013-11-23 16:15:00,34.7,16.5,30.44,West,275,1.0,2.0,47,0.00,,,0.00,26,Wunderground v.1.15,2013-11-23 23:15:00,
2013-11-23 16:20:00,34.6,16.9,30.44,West,275,1.0,1.0,48,0.00,,,0.00,16,Wunderground v.1.15,2013-11-23 23:20:00,
2013-11-23 16:25:00,34.3,17.1,30.44,West,275,0.0,1.0,49,0.00,,,0.00,11,Wunderground v.1.15,2013-11-23 23:25:00,
2013-11-23 16:30:00,34.0,16.8,30.44,West,275,0.0,0.0,49,0.00,,,0.00,7,Wunderground v.1.15,2013-11-23 23:30:00,
2013-11-23 16:35:00,33.5,16.8,30.44,West,275,0.0,0.0,50,0.00,,,0.00,5,Wunderground v.1.15,2013-11-23 23:35:00,
2013-11-23 16:40:00,33.2,16.5,30.44,West,275,0.0,1.0,50,0.00,,,0.00,0,Wunderground v.1.15,2013-11-23 23:40:00,
2013-11-23 16:45:00,32.9,16.3,30.44,West,275,0.0,1.0,50,0.00,,,0.00,0,Wunderground v.1.15,2013-11-23 23:45:00,
2013-11-23 16:55:00,32.5,16.4,30.44,West,275,0.0,0.0,51,0.00,,,0.00,0,Wunderground v.1.15,2013-11-23 23:55:00,
2013-11-23 17:00:00,32.4,16.7,30.44,West,275,0.0,0.0,52,0.00,,,0.00,0,Wunderground v.1.15,2013-11-24 00:00:00,
2013-11-23 17:06:00,32.4,16.7,30.44,West,275,0.0,0.0,52,0.00,,,0.00,0,Wunderground v.1.15,2013-11-24 00:06:00,
2013-11-23 17:15:00,32.1,16.4,30.44,West,275,0.0,0.0,52,0.00,,,0.00,0,Wunderground v.1.15,2013-11-24 00:15:00,
2013-11-23 17:25:00,31.9,16.2,30.44,West,275,0.0,0.0,52,0.00,,,0.00,0,Wunderground v.1.15,2013-11-24 00:25:00,
2013-11-23 17:30:00,31.9,16.7,30.44,West,275,0.0,0.0,53,0.00,,,0.00,0,Wunderground v.1.15,2013-11-24 00:30:00,
2013-11-23 17:35:00,31.9,16.2,30.44,West,275,0.0,0.0,52,0.00,,,0.00,0,Wunderground v.1.15,2013-11-24 00:35:00,
2013-11-23 17:40:00,31.9,16.2,30.44,West,275,0.0,0.0,52,0.00,,,0.00,0,Wunderground v.1.15,2013-11-24 00:40:00,
2013-11-23 17:45:00,31.9,16.2,30.43,West,275,0.0,0.0,52,0.00,,,0.00,0,Wunderground v.1.15,2013-11-24 00:45:00,
2013-11-23 17:50:00,32.1,16.0,30.43,West,275,0.0,0.0,51,0.00,,,0.00,0,Wunderground v.1.15,2013-11-24 00:50:00,
2013-11-23 17:55:00,32.1,16.0,30.43,West,275,0.0,0.0,51,0.00,,,0.00,0,Wunderground v.1.15,2013-11-24 00:55:00,
2013-11-23 18:00:00,32.1,16.0,30.43,West,275,0.0,0.0,51,0.00,,,0.00,0,Wunderground v.1.15,2013-11-24 01:00:00,
2013-11-23 18:10:00,31.9,15.8,30.43,West,275,0.0,0.0,51,0.00,,,0.00,0,Wunderground v.1.15,2013-11-24 01:10:00,
2013-11-23 18:15:00,31.9,15.8,30.43,West,275,0.0,0.0,51,0.00,,,0.00,0,Wunderground v.1.15,2013-11-24 01:15:00,
2013-11-23 18:20:00,31.8,16.2,30.43,West,275,0.0,0.0,52,0.00,,,0.00,0,Wunderground v.1.15,2013-11-24 01:20:00,
2013-11-23 18:25:00,31.6,16.0,30.43,West,275,0.0,0.0,52,0.00,,,0.00,0,Wunderground v.1.15,2013-11-24 01:25:00,
2013-11-23 18:30:00,31.5,15.9,30.43,West,275,0.0,0.0,52,0.00,,,0.00,0,Wunderground v.1.15,2013-11-24 01:30:00,
2013-11-23 18:35:00,31.5,15.9,30.43,West,275,0.0,0.0,52,0.00,,,0.00,0,Wunderground v.1.15,2013-11-24 01:35:00,
2013-11-23 18:40:00,31.2,16.0,30.43,West,275,0.0,0.0,53,0.00,,,0.00,0,Wunderground v.1.15,2013-11-24 01:40:00,
2013-11-23 18:45:00,31.3,16.1,30.43,West,275,0.0,0.0,53,0.00,,,0.00,0,Wunderground v.1.15,2013-11-24 01:45:00,
2013-11-23 18:50:00,31.3,15.7,30.43,West,275,0.0,0.0,52,0.00,,,0.00,0,Wunderground v.1.15,2013-11-24 01:50:00,
2013-11-23 18:55:00,31.2,16.5,30.43,West,275,0.0,0.0,54,0.00,,,0.00,0,Wunderground v.1.15,2013-11-24 01:55:00,
2013-11-23 19:06:00,30.9,16.2,30.43,West,275,0.0,0.0,54,0.00,,,0.00,0,Wunderground v.1.15,2013-11-24 02:06:00,
2013-11-23 19:15:00,30.3,16.5,30.43,West,275,0.0,0.0,56,0.00,,,0.00,0,Wunderground v.1.15,2013-11-24 02:15:00,
2013-11-23 19:20:00,30.1,16.3,30.43,West,275,0.0,0.0,56,0.00,,,0.00,0,Wunderground v.1.15,2013-11-24 02:20:00,
2013-11-23 19:25:00,30.0,16.6,30.43,West,275,0.0,0.0,57,0.00,,,0.00,0,Wunderground v.1.15,2013-11-24 02:25:00,
2013-11-23 19:30:00,30.0,17.0,30.42,West,275,0.0,0.0,58,0.00,,,0.00,0,Wunderground v.1.15,2013-11-24 02:30:00,
2013-11-23 19:35:00,29.8,16.8,30.42,West,275,0.0,0.0,58,0.00,,,0.00,0,Wunderground v.1.15,2013-11-24 02:35:00,
2013-11-23 19:40:00,29.7,16.7,30.42,West,275,0.0,0.0,58,0.00,,,0.00,0,Wunderground v.1.15,2013-11-24 02:40:00,
2013-11-23 19:45:00,29.5,16.5,30.42,West,275,0.0,0.0,58,0.00,,,0.00,0,Wunderground v.1.15,2013-11-24 02:45:00,
2013-11-23 19:50:00,29.4,16.8,30.42,West,275,0.0,0.0,59,0.00,,,0.00,0,Wunderground v.1.15,2013-11-24 02:50:00,
2013-11-23 19:55:00,29.4,16.8,30.42,West,275,0.0,0.0,59,0.00,,,0.00,0,Wunderground v.1.15,2013-11-24 02:55:00,
2013-11-23 20:00:00,29.5,16.9,30.41,West,275,0.0,0.0,59,0.00,,,0.00,0,Wunderground v.1.15,2013-11-24 03:00:00,
2013-11-23 20:05:00,29.5,16.5,30.41,West,275,0.0,0.0,58,0.00,,,0.00,0,Wunderground v.1.15,2013-11-24 03:05:00,
2013-11-23 20:15:00,29.5,16.9,30.40,West,275,0.0,0.0,59,0.00,,,0.00,0,Wunderground v.1.15,2013-11-24 03:15:00,
2013-11-23 20:20:00,29.3,16.7,30.40,West,275,0.0,0.0,59,0.00,,,0.00,0,Wunderground v.1.15,2013-11-24 03:20:00,
2013-11-23 20:30:00,29.0,17.2,30.40,West,275,0.0,0.0,61,0.00,,,0.00,0,Wunderground v.1.15,2013-11-24 03:30:00,
2013-11-23 20:35:00,29.0,17.2,30.40,West,275,0.0,0.0,61,0.00,,,0.00,0,Wunderground v.1.15,2013-11-24 03:35:00,
2013-11-23 20:40:00,28.8,17.0,30.40,West,275,0.0,0.0,61,0.00,,,0.00,0,Wunderground v.1.15,2013-11-24 03:40:00,
2013-11-23 20:45:00,28.8,16.6,30.39,West,275,0.0,0.0,60,0.00,,,0.00,0,Wunderground v.1.15,2013-11-24 03:45:00,
2013-11-23 20:50:00,29.0,16.4,30.39,West,275,0.0,0.0,59,0.00,,,0.00,0,Wunderground v.1.15,2013-11-24 03:50:00,
2013-11-23 20:55:00,28.8,16.6,30.39,West,275,0.0,0.0,60,0.00,,,0.00,0,Wunderground v.1.15,2013-11-24 03:55:00,
2013-11-23 21:10:00,28.4,17.8,30.39,West,275,0.0,0.0,64,0.00,,,0.00,0,Wunderground v.1.15,2013-11-24 04:10:00,
2013-11-23 21:15:00,28.4,17.8,30.39,West,275,0.0,0.0,64,0.00,,,0.00,0,Wunderground v.1.15,2013-11-24 04:15:00,
2013-11-23 21:20:00,28.2,17.6,30.39,West,275,0.0,0.0,64,0.00,,,0.00,0,Wunderground v.1.15,2013-11-24 04:20:00,
2013-11-23 21:25:00,28.2,17.6,30.39,West,275,0.0,0.0,64,0.00,,,0.00,0,Wunderground v.1.15,2013-11-24 04:25:00,
2013-11-23 21:30:00,28.1,17.5,30.39,West,275,0.0,0.0,64,0.00,,,0.00,0,Wunderground v.1.15,2013-11-24 04:30:00,
2013-11-23 21:35:00,28.1,17.8,30.39,West,275,0.0,0.0,65,0.00,,,0.00,0,Wunderground v.1.15,2013-11-24 04:35:00,
2013-11-23 21:45:00,27.9,17.6,30.38,West,275,0.0,0.0,65,0.00,,,0.00,0,Wunderground v.1.15,2013-11-24 04:45:00,
2013-11-23 21:50:00,27.9,17.6,30.38,West,275,0.0,0.0,65,0.00,,,0.00,0,Wunderground v.1.15,2013-11-24 04:50:00,
2013-11-23 21:55:00,27.9,18.0,30.38,West,275,0.0,0.0,66,0.00,,,0.00,0,Wunderground v.1.15,2013-11-24 04:55:00,
2013-11-23 22:00:00,27.8,17.9,30.37,West,275,0.0,0.0,66,0.00,,,0.00,0,Wunderground v.1.15,2013-11-24 05:00:00,
2013-11-23 22:10:00,27.8,17.9,30.37,West,275,0.0,0.0,66,0.00,,,0.00,0,Wunderground v.1.15,2013-11-24 05:10:00,
2013-11-23 22:15:00,27.9,18.0,30.36,West,275,0.0,0.0,66,0.00,,,0.00,0,Wunderground v.1.15,2013-11-24 05:15:00,
2013-11-23 22:20:00,27.9,18.0,30.36,West,275,0.0,0.0,66,0.00,,,0.00,0,Wunderground v.1.15,2013-11-24 05:20:00,
2013-11-23 22:25:00,27.9,17.6,30.36,West,275,0.0,0.0,65,0.00,,,0.00,0,Wunderground v.1.15,2013-11-24 05:25:00,
2013-11-23 22:30:00,28.1,17.8,30.36,West,275,0.0,0.0,65,0.00,,,0.00,0,Wunderground v.1.15,2013-11-24 05:30:00,
2013-11-23 22:35:00,28.2,17.9,30.36,West,275,0.0,0.0,65,0.00,,,0.00,0,Wunderground v.1.15,2013-11-24 05:35:00,
2013-11-23 22:40:00,28.4,18.1,30.36,West,275,0.0,0.0,65,0.00,,,0.00,0,Wunderground v.1.15,2013-11-24 05:40:00,
2013-11-23 22:45:00,28.5,18.2,30.36,West,275,0.0,0.0,65,0.00,,,0.00,0,Wunderground v.1.15,2013-11-24 05:45:00,
2013-11-23 22:50:00,28.7,18.4,30.36,West,275,0.0,2.0,65,0.00,,,0.00,0,Wunderground v.1.15,2013-11-24 05:50:00,
2013-11-23 22:55:00,28.7,18.4,30.36,West,275,0.0,2.0,65,0.00,,,0.00,0,Wunderground v.1.15,2013-11-24 05:55:00,
2013-11-23 23:00:00,28.8,18.1,30.35,West,275,1.0,1.0,64,0.00,,,0.00,0,Wunderground v.1.15,2013-11-24 06:00:00,
2013-11-23 23:05:00,28.8,18.1,30.35,West,275,0.0,1.0,64,0.00,,,0.00,0,Wunderground v.1.15,2013-11-24 06:05:00,
2013-11-23 23:15:00,28.8,18.1,30.35,West,275,0.0,0.0,64,0.00,,,0.00,0,Wunderground v.1.15,2013-11-24 06:15:00,
2013-11-23 23:20:00,28.8,18.1,30.35,West,275,0.0,0.0,64,0.00,,,0.00,0,Wunderground v.1.15,2013-11-24 06:20:00,
2013-11-23 23:25:00,28.8,18.1,30.35,West,275,0.0,0.0,64,0.00,,,0.00,0,Wunderground v.1.15,2013-11-24 06:25:00,
2013-11-23 23:30:00,29.0,18.3,30.34,West,275,0.0,0.0,64,0.00,,,0.00,0,Wunderground v.1.15,2013-11-24 06:30:00,
2013-11-23 23:35:00,29.0,18.3,30.34,West,275,0.0,0.0,64,0.00,,,0.00,0,Wunderground v.1.15,2013-11-24 06:35:00,
2013-11-23 23:40:00,29.0,18.3,30.34,West,275,0.0,0.0,64,0.00,,,0.00,0,Wunderground v.1.15,2013-11-24 06:40:00,
2013-11-23 23:50:00,29.1,18.4,30.34,West,275,0.0,0.0,64,0.00,,,0.00,0,Wunderground v.1.15,2013-11-24 06:50:00,
2013-11-23 23:55:00,29.0,18.3,30.34,West,275,0.0,0.0,64,0.00,,,0.00,0,Wunderground v.1.15,2013-11-24 06:55:00,